Location: Albany
(35.0170°S, 117.8920°E)
Time: 23:43:25
(UTC+08:00)

S-56A Canister/Altair - Pass Details

Date: 23 June 2021
Orbit: 632 x 2501 km, 38.9° (Epoch: 24 July)

Event Time Altitude Azimuth Distance (km) Brightness Sun altitude
Rises 19:46:30 0° 251° (WSW) 6,193 13.0 -32.2°
Reaches altitude 10° 19:50:37 10° 251° (WSW) 5,168 12.4 -33.0°
Maximum altitude 20:05:40 83° 335° (NNW) 2,190 9.6 -36.1°
Enters shadow 20:08:13 65° 49° (NE) 2,241 9.5 -36.6°
